,,Stat6,,Stat2,,Stat8,,Stat9,,Stat10,,Wind1,,Wind1,
time,status,PA1M_AVG,status,PR1M_SUM,status,RH1M_AVG,status,SR1M_AVG,status,TA1M_AVG,status,W1dAve1m,status,W1sAve1m,
2009-04-21, 00:00:00,VALID,917.586,VALID,0,VALID,100,VALID,-0.118866,VALID,20.9211,VALID,41,VALID,0,
2009-04-21, 00:01:00,VALID,917.567,VALID,0,VALID,100,VALID,-0.101885,VALID,20.9405,VALID,41,VALID,0,
2009-04-21, 00:02:00,VALID,917.529,VALID,0,VALID,100,VALID,-0.101885,VALID,20.947,VALID,167,VALID,0,
2009-04-21, 00:03:00,VALID,917.504,VALID,0,VALID,100,VALID,-0.0849042,VALID,20.947,VALID,174,VALID,0,
2009-04-21, 00:04:00,VALID,917.474,VALID,0,VALID,100,VALID,-0.101885,VALID,20.9405,VALID,64,VALID,0,
2009-04-21, 00:05:00,VALID,917.438,VALID,0,VALID,100,VALID,-0.135847,VALID,20.9276,VALID,21,VALID,0.120236,
2009-04-21, 00:06:00,VALID,917.406,VALID,0,VALID,100,VALID,-0.101885,VALID,20.9308,VALID,23,VALID,0.0025436,
2009-04-21, 00:07:00,VALID,917.39,VALID,0,VALID,100,VALID,-0.0849042,VALID,20.9341,VALID,25,VALID,0,
2009-04-21, 00:08:00,VALID,917.38,VALID,0,VALID,100,VALID,-0.101885,VALID,20.9116,VALID,26,VALID,0,
2009-04-21, 00:09:00,VALID,917.35,VALID,0,VALID,100,VALID,-0.0849042,VALID,20.9173,VALID,20,VALID,0,
2009-04-21, 00:10:00,VALID,917.353,VALID,0,VALID,100,VALID,-0.0509425,VALID,20.9146,VALID,22,VALID,0.078683,
2009-04-21, 00:11:00,VALID,917.371,VALID,0,VALID,100,VALID,-0.101885,VALID,20.9016,VALID,23,VALID,0,
2009-04-21, 00:12:00,VALID,917.362,VALID,0,VALID,100,VALID,-0.0509425,VALID,20.8719,VALID,22,VALID,0.00109012,
2009-04-21, 00:13:00,VALID,917.364,VALID,0,VALID,100,VALID,-0.0509425,VALID,20.8921,VALID,33,VALID,0.0963542,
2009-04-21, 00:14:00,VALID,917.324,VALID,0,VALID,100,VALID,-0.0509425,VALID,20.9113,VALID,32,VALID,0.139695,
2009-04-21, 00:15:00,VALID,917.286,VALID,0,VALID,100,VALID,-0.101885,VALID,20.9048,VALID,21,VALID,0.0931784,
2009-04-21, 00:16:00,VALID,917.266,VALID,0,VALID,100,VALID,-0.101885,VALID,20.9116,VALID,27,VALID,0,
2009-04-21, 00:17:00,VALID,917.231,VALID,0,VALID,100,VALID,-0.0679233,VALID,20.9016,VALID,24,VALID,0,
2009-04-21, 00:18:00,VALID,917.222,VALID,0,VALID,100,VALID,-0.118866,VALID,20.8886,VALID,24,VALID,0,
2009-04-21, 00:19:00,VALID,917.213,VALID,0,VALID,100,VALID,-0.0849042,VALID,20.8883,VALID,289,VALID,0,
2009-04-21, 00:20:00,VALID,917.209,VALID,0,VALID,100,VALID,-0.0849042,VALID,20.8529,VALID,234,VALID,0.0399709,
2009-04-21, 00:21:00,VALID,917.201,VALID,0,VALID,100,VALID,-0.0849042,VALID,20.8464,VALID,231,VALID,0,
2009-04-21, 00:22:00,VALID,917.198,VALID,0,VALID,100,VALID,-0.0169808,VALID,20.8386,VALID,252,VALID,0,
2009-04-21, 00:23:00,VALID,917.184,VALID,0,VALID,100,VALID,0,VALID,20.8356,VALID,357,VALID,0.0890997,
2009-04-21, 00:24:00,VALID,917.15,VALID,0,VALID,100,VALID,0,VALID,20.8283,VALID,22,VALID,0,
2009-04-21, 00:25:00,VALID,917.147,VALID,0,VALID,100,VALID,0.0679233,VALID,20.8381,VALID,32,VALID,0,
2009-04-21, 00:26:00,VALID,917.154,VALID,0,VALID,100,VALID,0.0509425,VALID,20.8154,VALID,26,VALID,0,
2009-04-21, 00:27:00,VALID,917.155,VALID,0,VALID,100,VALID,0.0339617,VALID,20.7762,VALID,31,VALID,0,
2009-04-21, 00:28:00,VALID,917.14,VALID,0,VALID,100,VALID,0.0169808,VALID,20.7797,VALID,35,VALID,0,
2009-04-21, 00:29:00,VALID,917.13,VALID,0,VALID,100,VALID,0,VALID,20.8186,VALID,35,VALID,0,
2009-04-21, 00:30:00,VALID,917.119,VALID,0,VALID,100,VALID,0.0339617,VALID,20.8026,VALID,36,VALID,0.0646484,
2009-04-21, 00:31:00,VALID,917.106,VALID,0,VALID,100,VALID,0.0169808,VALID,20.7951,VALID,28,VALID,0.0133681,
2009-04-21, 00:32:00,VALID,917.112,VALID,0,VALID,100,VALID,0.0169808,VALID,20.8381,VALID,25,VALID,0,
2009-04-21, 00:33:00,VALID,917.135,VALID,0,VALID,100,VALID,0.0169808,VALID,20.8546,VALID,25,VALID,0,
2009-04-21, 00:34:00,VALID,917.15,VALID,0,VALID,100,VALID,-0.0169808,VALID,20.8311,VALID,25,VALID,0,
2009-04-21, 00:35:00,VALID,917.171,VALID,0,VALID,100,VALID,0.0169808,VALID,20.8283,VALID,127,VALID,0.00446429,
2009-04-21, 00:36:00,VALID,917.195,VALID,0,VALID,100,VALID,0.0339617,VALID,20.8189,VALID,183,VALID,0,
2009-04-21, 00:37:00,VALID,917.198,VALID,0,VALID,100,VALID,0.0169808,VALID,20.8124,VALID,183,VALID,0,
2009-04-21, 00:38:00,VALID,917.191,VALID,0,VALID,100,VALID,0,VALID,20.8029,VALID,183,VALID,0,
2009-04-21, 00:39:00,VALID,917.209,VALID,0,VALID,100,VALID,0,VALID,20.8059,VALID,101,VALID,0,
2009-04-21, 00:40:00,VALID,917.212,VALID,0,VALID,100,VALID,0.0169808,VALID,20.8451,VALID,54,VALID,0,
2009-04-21, 00:41:00,VALID,917.209,VALID,0,VALID,100,VALID,0,VALID,20.8613,VALID,37,VALID,0,
2009-04-21, 00:42:00,VALID,917.2,VALID,0,VALID,100,VALID,0,VALID,20.8354,VALID,49,VALID,0,
2009-04-21, 00:43:00,VALID,917.177,VALID,0.2,VALID,100,VALID,0,VALID,20.8483,VALID,49,VALID,0,
2009-04-21, 00:44:00,VALID,917.149,VALID,0,VALID,100,VALID,0.0169808,VALID,20.8351,VALID,48,VALID,0,
2009-04-21, 00:45:00,VALID,917.132,VALID,0,VALID,100,VALID,0,VALID,20.8221,VALID,43,VALID,0,
2009-04-21, 00:46:00,VALID,917.113,VALID,0,VALID,100,VALID,0.0169808,VALID,20.8124,VALID,30,VALID,0,
2009-04-21, 00:47:00,VALID,917.105,VALID,0,VALID,100,VALID,-0.0339617,VALID,20.7962,VALID,72,VALID,0,
2009-04-21, 00:48:00,VALID,917.097,VALID,0,VALID,100,VALID,0,VALID,20.7477,VALID,62,VALID,0.00874256,
2009-04-21, 00:49:00,VALID,917.085,VALID,0,VALID,100,VALID,0.0509425,VALID,20.7567,VALID,104,VALID,0,
2009-04-21, 00:50:00,VALID,917.046,VALID,0,VALID,100,VALID,0.0509425,VALID,20.728,VALID,197,VALID,0.0757812,
2009-04-21, 00:51:00,VALID,917.021,VALID,0,VALID,100,VALID,0.0339617,VALID,20.702,VALID,223,VALID,0.00106534,
2009-04-21, 00:52:00,VALID,917.004,VALID,0,VALID,100,VALID,0,VALID,20.6763,VALID,201,VALID,0.0123547,
2009-04-21, 00:53:00,VALID,917.007,VALID,0,VALID,100,VALID,0.0169808,VALID,20.6701,VALID,259,VALID,0.0775534,
2009-04-21, 00:54:00,VALID,917.014,VALID,0,VALID,100,VALID,0,VALID,20.6404,VALID,270,VALID,0.0492369,
2009-04-21, 00:55:00,VALID,917.021,VALID,0,VALID,100,VALID,0.0169808,VALID,20.6209,VALID,278,VALID,0,
2009-04-21, 00:56:00,VALID,917.016,VALID,0,VALID,100,VALID,0.0169808,VALID,20.6141,VALID,283,VALID,0,
2009-04-21, 00:57:00,VALID,916.997,VALID,0,VALID,100,VALID,0.0169808,VALID,20.6209,VALID,285,VALID,0,
2009-04-21, 00:58:00,VALID,916.98,VALID,0,VALID,100,VALID,0.0339617,VALID,20.6501,VALID,291,VALID,0,
2009-04-21, 00:59:00,VALID,916.966,VALID,0,VALID,100,VALID,0.0339617,VALID,20.6501,VALID,27,VALID,0.051398,
2009-04-21, 01:00:00,VALID,916.946,VALID,0,VALID,100,VALID,0.0169808,VALID,20.6176,VALID,21,VALID,0,
2009-04-21, 01:01:00,VALID,916.944,VALID,0,VALID,100,VALID,0.0509425,VALID,20.5784,VALID,17,VALID,0,
2009-04-21, 01:02:00,VALID,916.919,VALID,0,VALID,100,VALID,0.0169808,VALID,20.5977,VALID,19,VALID,0,
2009-04-21, 01:03:00,VALID,916.894,VALID,0,VALID,100,VALID,0.0509425,VALID,20.6236,VALID,10,VALID,0,
2009-04-21, 01:04:00,VALID,916.862,VALID,0,VALID,100,VALID,0.0509425,VALID,20.6398,VALID,28,VALID,0,
2009-04-21, 01:05:00,VALID,916.825,VALID,0,VALID,100,VALID,0.0849042,VALID,20.6596,VALID,28,VALID,0,
2009-04-21, 01:06:00,VALID,916.779,VALID,0.2,VALID,100,VALID,0.0509425,VALID,20.6363,VALID,24,VALID,0.106468,
2009-04-21, 01:07:00,VALID,916.725,VALID,0,VALID,100,VALID,-0.0169808,VALID,20.6184,VALID,37,VALID,0.37965,
2009-04-21, 01:08:00,VALID,916.691,VALID,0,VALID,100,VALID,-0.0679233,VALID,20.609,VALID,24,VALID,0.000347222,
2009-04-21, 01:09:00,VALID,916.663,VALID,0,VALID,100,VALID,-0.0679233,VALID,20.6062,VALID,26,VALID,0.0687099,
2009-04-21, 01:10:00,VALID,916.658,VALID,0.2,VALID,100,VALID,-0.0679233,VALID,20.5768,VALID,20,VALID,0,
2009-04-21, 01:11:00,VALID,916.652,VALID,0,VALID,100,VALID,-0.0509425,VALID,20.5218,VALID,16,VALID,0.119531,
2009-04-21, 01:12:00,VALID,916.65,VALID,0,VALID,100,VALID,-0.0679233,VALID,20.4959,VALID,26,VALID,0.317645,
2009-04-21, 01:13:00,VALID,916.653,VALID,0,VALID,100,VALID,-0.0509425,VALID,20.5018,VALID,25,VALID,0.755269,
2009-04-21, 01:14:00,VALID,916.638,VALID,0.2,VALID,100,VALID,-0.0679233,VALID,20.4959,VALID,17,VALID,0.445858,
2009-04-21, 01:15:00,VALID,916.622,VALID,0,VALID,100,VALID,-0.0679233,VALID,20.4602,VALID,25,VALID,0.510901,
2009-04-21, 01:16:00,VALID,916.592,VALID,0,VALID,100,VALID,-0.0509425,VALID,20.4212,VALID,24,VALID,0.25465,
2009-04-21, 01:17:00,VALID,916.596,VALID,0,VALID,100,VALID,-0.101885,VALID,20.418,VALID,30,VALID,0.245075,
2009-04-21, 01:18:00,VALID,916.563,VALID,0,VALID,100,VALID,-0.0509425,VALID,20.4275,VALID,30,VALID,0.00688244,
2009-04-21, 01:19:00,VALID,916.521,VALID,0,VALID,100,VALID,-0.0339617,VALID,20.4402,VALID,27,VALID,0.00527344,
2009-04-21, 01:20:00,VALID,916.49,VALID,0.2,VALID,100,VALID,-0.0679233,VALID,20.4172,VALID,17,VALID,0.078125,
2009-04-21, 01:21:00,VALID,916.479,VALID,0,VALID,100,VALID,-0.0849042,VALID,20.4015,VALID,29,VALID,0.118786,
2009-04-21, 01:22:00,VALID,916.458,VALID,0,VALID,100,VALID,-0.0679233,VALID,20.4172,VALID,20,VALID,0.152158,
2009-04-21, 01:23:00,VALID,916.434,VALID,0,VALID,100,VALID,-0.0169808,VALID,20.4269,VALID,31,VALID,0.372768,
2009-04-21, 01:24:00,VALID,916.425,VALID,0,VALID,100,VALID,-0.0509425,VALID,20.4105,VALID,22,VALID,0.157924,
2009-04-21, 01:25:00,VALID,916.412,VALID,0.2,VALID,100,VALID,-0.0169808,VALID,20.401,VALID,30,VALID,0.139323,
2009-04-21, 01:26:00,VALID,916.412,VALID,0,VALID,100,VALID,-0.0509425,VALID,20.4042,VALID,26,VALID,0.0948661,
2009-04-21, 01:27:00,VALID,916.415,VALID,0,VALID,100,VALID,-0.0679233,VALID,20.3845,VALID,31,VALID,0.303267,
2009-04-21, 01:28:00,VALID,916.407,VALID,0,VALID,100,VALID,-0.0509425,VALID,20.372,VALID,23,VALID,0.470022,
2009-04-21, 01:29:00,VALID,916.425,VALID,0.2,VALID,100,VALID,-0.0509425,VALID,20.3496,VALID,22,VALID,0.0590946,
2009-04-21, 01:30:00,VALID,916.426,VALID,0,VALID,100,VALID,-0.0509425,VALID,20.3261,VALID,22,VALID,0,
2009-04-21, 01:31:00,VALID,916.435,VALID,0,VALID,100,VALID,-0.0679233,VALID,20.3031,VALID,15,VALID,0.212936,
2009-04-21, 01:32:00,VALID,916.442,VALID,0,VALID,100,VALID,-0.0509425,VALID,20.2936,VALID,35,VALID,0.294271,
2009-04-21, 01:33:00,VALID,916.453,VALID,0,VALID,100,VALID,-0.0339617,VALID,20.2971,VALID,21,VALID,0.144709,
2009-04-21, 01:34:00,VALID,916.438,VALID,0,VALID,100,VALID,-0.0849042,VALID,20.2974,VALID,26,VALID,0.151786,
2009-04-21, 01:35:00,VALID,916.427,VALID,0,VALID,100,VALID,-0.0509425,VALID,20.3004,VALID,17,VALID,0.167187,
2009-04-21, 01:36:00,VALID,916.43,VALID,0,VALID,100,VALID,-0.0679233,VALID,20.2971,VALID,22,VALID,0.00635901,
2009-04-21, 01:37:00,VALID,916.407,VALID,0,VALID,100,VALID,-0.0339617,VALID,20.2879,VALID,20,VALID,0.301042,
2009-04-21, 01:38:00,VALID,916.398,VALID,0,VALID,100,VALID,-0.0849042,VALID,20.2684,VALID,1,VALID,0.484553,
2009-04-21, 01:39:00,VALID,916.377,VALID,0,VALID,100,VALID,-0.0509425,VALID,20.232,VALID,16,VALID,0.237942,
2009-04-21, 01:40:00,VALID,916.346,VALID,0,VALID,100,VALID,-0.0679233,VALID,20.232,VALID,355,VALID,0.704723,
2009-04-21, 01:41:00,VALID,916.305,VALID,0.2,VALID,100,VALID,-0.0679233,VALID,20.2125,VALID,8,VALID,0.94494,
2009-04-21, 01:42:00,VALID,916.271,VALID,0,VALID,100,VALID,-0.0509425,VALID,20.2222,VALID,10,VALID,1.35584,
2009-04-21, 01:43:00,VALID,916.246,VALID,0,VALID,100,VALID,-0.0509425,VALID,20.2265,VALID,5,VALID,0.893532,
2009-04-21, 01:44:00,VALID,916.237,VALID,0,VALID,100,VALID,-0.0679233,VALID,20.2295,VALID,10,VALID,0.916146,
2009-04-21, 01:45:00,VALID,916.235,VALID,0,VALID,100,VALID,-0.0679233,VALID,20.2355,VALID,9,VALID,0.603379,
2009-04-21, 01:46:00,VALID,916.23,VALID,0,VALID,100,VALID,-0.0509425,VALID,20.2125,VALID,351,VALID,0.953646,
2009-04-21, 01:47:00,VALID,916.251,VALID,0,VALID,100,VALID,-0.0849042,VALID,20.2093,VALID,16,VALID,0.375182,
2009-04-21, 01:48:00,VALID,916.265,VALID,0,VALID,100,VALID,-0.0339617,VALID,20.2163,VALID,24,VALID,0.557594,
2009-04-21, 01:49:00,VALID,916.265,VALID,0,VALID,100,VALID,-0.0339617,VALID,20.1833,VALID,17,VALID,0,
2009-04-21, 01:50:00,VALID,916.289,VALID,0,VALID,100,VALID,-0.0339617,VALID,20.187,VALID,24,VALID,0.101367,
2009-04-21, 01:51:00,VALID,916.289,VALID,0,VALID,100,VALID,-0.0849042,VALID,20.1771,VALID,17,VALID,0.250908,
2009-04-21, 01:52:00,VALID,916.289,VALID,0,VALID,100,VALID,0.0339617,VALID,20.1847,VALID,20,VALID,0.00874256,
2009-04-21, 01:53:00,VALID,916.279,VALID,0,VALID,100,VALID,0.0849042,VALID,20.2142,VALID,17,VALID,0,
2009-04-21, 01:54:00,VALID,916.261,VALID,0,VALID,100,VALID,0,VALID,20.2277,VALID,15,VALID,0,
2009-04-21, 01:55:00,VALID,916.244,VALID,0,VALID,100,VALID,0.0679233,VALID,20.2147,VALID,16,VALID,0,
2009-04-21, 01:56:00,VALID,916.233,VALID,0,VALID,100,VALID,0.0679233,VALID,20.1945,VALID,10,VALID,0,
2009-04-21, 01:57:00,VALID,916.22,VALID,0,VALID,100,VALID,0.0339617,VALID,20.1847,VALID,15,VALID,0,
2009-04-21, 01:58:00,VALID,916.208,VALID,0,VALID,100,VALID,0.0339617,VALID,20.1982,VALID,16,VALID,0,
2009-04-21, 01:59:00,VALID,916.225,VALID,0,VALID,100,VALID,0.0339617,VALID,20.2023,VALID,13,VALID,0,
2009-04-21, 02:00:00,VALID,916.242,VALID,0,VALID,100,VALID,0.0169808,VALID,20.2015,VALID,9,VALID,0.0398849,
2009-04-21, 02:01:00,VALID,916.259,VALID,0,VALID,100,VALID,0.0169808,VALID,20.1945,VALID,5,VALID,0,
2009-04-21, 02:02:00,VALID,916.268,VALID,0,VALID,100,VALID,0.0169808,VALID,20.2017,VALID,20,VALID,0.222561,
2009-04-21, 02:03:00,VALID,916.276,VALID,0,VALID,100,VALID,0.0339617,VALID,20.1688,VALID,28,VALID,0.339489,
2009-04-21, 02:04:00,VALID,916.264,VALID,0,VALID,100,VALID,0.0509425,VALID,20.169,VALID,18,VALID,0.5266,
2009-04-21, 02:05:00,VALID,916.264,VALID,0,VALID,100,VALID,0.0509425,VALID,20.1555,VALID,16,VALID,0.358398,
2009-04-21, 02:06:00,VALID,916.263,VALID,0,VALID,100,VALID,0.0169808,VALID,20.1528,VALID,10,VALID,0.0110828,
2009-04-21, 02:07:00,VALID,916.255,VALID,0,VALID,100,VALID,-0.0169808,VALID,20.1571,VALID,354,VALID,0.00109012,
2009-04-21, 02:08:00,VALID,916.244,VALID,0,VALID,100,VALID,-0.0169808,VALID,20.1379,VALID,337,VALID,0.0148983,
2009-04-21, 02:09:00,VALID,916.243,VALID,0,VALID,100,VALID,-0.0169808,VALID,20.1438,VALID,355,VALID,0.015625,
2009-04-21, 02:10:00,VALID,916.239,VALID,0,VALID,100,VALID,-0.0169808,VALID,20.1409,VALID,345,VALID,0.00114329,
2009-04-21, 02:11:00,VALID,916.238,VALID,0.2,VALID,100,VALID,-0.0339617,VALID,20.1573,VALID,346,VALID,0,
2009-04-21, 02:12:00,VALID,916.257,VALID,0,VALID,100,VALID,-0.0169808,VALID,20.1473,VALID,346,VALID,0,
2009-04-21, 02:13:00,VALID,916.27,VALID,0,VALID,100,VALID,-0.0509425,VALID,20.1603,VALID,346,VALID,0,
2009-04-21, 02:14:00,VALID,916.26,VALID,0,VALID,100,VALID,-0.0509425,VALID,20.2028,VALID,346,VALID,0,
2009-04-21, 02:15:00,VALID,916.261,VALID,0.2,VALID,100,VALID,-0.0509425,VALID,20.2414,VALID,359,VALID,0,
2009-04-21, 02:16:00,VALID,916.232,VALID,0,VALID,100,VALID,-0.0849042,VALID,20.2714,VALID,3,VALID,0,
2009-04-21, 02:17:00,VALID,916.22,VALID,0,VALID,100,VALID,-0.0339617,VALID,20.2642,VALID,3,VALID,0,
2009-04-21, 02:18:00,VALID,916.188,VALID,0,VALID,100,VALID,-0.0339617,VALID,20.2477,VALID,3,VALID,0,
2009-04-21, 02:19:00,VALID,916.192,VALID,0.2,VALID,100,VALID,-0.0339617,VALID,20.2477,VALID,3,VALID,0,
2009-04-21, 02:20:00,VALID,916.216,VALID,0,VALID,100,VALID,-0.0169808,VALID,20.2409,VALID,3,VALID,0,
2009-04-21, 02:21:00,VALID,916.233,VALID,0,VALID,100,VALID,0,VALID,20.2347,VALID,296,VALID,0,
2009-04-21, 02:22:00,VALID,916.225,VALID,0.2,VALID,100,VALID,0,VALID,20.199,VALID,270,VALID,0,
2009-04-21, 02:23:00,VALID,916.202,VALID,0.6,VALID,100,VALID,-0.0509425,VALID,20.1793,VALID,270,VALID,0,
2009-04-21, 02:24:00,VALID,916.185,VALID,0.4,VALID,100,VALID,-0.0169808,VALID,20.1733,VALID,270,VALID,0,
2009-04-21, 02:25:00,VALID,916.181,VALID,0,VALID,100,VALID,0,VALID,20.1666,VALID,270,VALID,0,
2009-04-21, 02:26:00,VALID,916.163,VALID,0.2,VALID,100,VALID,-0.0339617,VALID,20.1795,VALID,310,VALID,0,
2009-04-21, 02:27:00,VALID,916.149,VALID,0,VALID,100,VALID,0.0169808,VALID,20.2152,VALID,46,VALID,0,
2009-04-21, 02:28:00,VALID,916.141,VALID,0,VALID,100,VALID,-0.0339617,VALID,20.2217,VALID,32,VALID,0,
2009-04-21, 02:29:00,VALID,916.157,VALID,0,VALID,100,VALID,-0.0169808,VALID,20.212,VALID,69,VALID,0,
2009-04-21, 02:30:00,VALID,916.154,VALID,0,VALID,100,VALID,-0.0339617,VALID,20.1795,VALID,184,VALID,0.00981105,
2009-04-21, 02:31:00,VALID,916.145,VALID,0,VALID,100,VALID,-0.0169808,VALID,20.1568,VALID,222,VALID,0.0836293,
2009-04-21, 02:32:00,VALID,916.178,VALID,0,VALID,100,VALID,0,VALID,20.1571,VALID,242,VALID,0,
2009-04-21, 02:33:00,VALID,916.164,VALID,0,VALID,100,VALID,-0.0339617,VALID,20.1633,VALID,205,VALID,0,
2009-04-21, 02:34:00,VALID,916.15,VALID,0,VALID,100,VALID,-0.0509425,VALID,20.1603,VALID,163,VALID,0,
2009-04-21, 02:35:00,VALID,916.139,VALID,0,VALID,100,VALID,-0.0339617,VALID,20.1538,VALID,164,VALID,0,
2009-04-21, 02:36:00,VALID,916.114,VALID,0,VALID,100,VALID,-0.0849042,VALID,20.1671,VALID,164,VALID,0,
2009-04-21, 02:37:00,VALID,916.07,VALID,0,VALID,100,VALID,-0.0679233,VALID,20.1698,VALID,164,VALID,0,
2009-04-21, 02:38:00,VALID,916.04,VALID,0,VALID,100,VALID,-0.0679233,VALID,20.1638,VALID,164,VALID,0,
2009-04-21, 02:39:00,VALID,916.042,VALID,0,VALID,100,VALID,-0.0509425,VALID,20.1246,VALID,164,VALID,0,
2009-04-21, 02:40:00,VALID,916.037,VALID,0,VALID,100,VALID,-0.0339617,VALID,20.1543,VALID,164,VALID,0,
2009-04-21, 02:41:00,VALID,916.059,VALID,0,VALID,100,VALID,-0.0849042,VALID,20.1643,VALID,164,VALID,0,
2009-04-21, 02:42:00,VALID,916.098,VALID,0,VALID,100,VALID,-0.0849042,VALID,20.1541,VALID,164,VALID,0,
2009-04-21, 02:43:00,VALID,916.118,VALID,0,VALID,100,VALID,-0.0849042,VALID,20.1798,VALID,164,VALID,0,
2009-04-21, 02:44:00,VALID,916.129,VALID,0,VALID,100,VALID,-0.0679233,VALID,20.1668,VALID,164,VALID,0,
2009-04-21, 02:45:00,VALID,916.132,VALID,0,VALID,100,VALID,-0.0169808,VALID,20.1636,VALID,164,VALID,0,
2009-04-21, 02:46:00,VALID,916.13,VALID,0,VALID,100,VALID,-0.0339617,VALID,20.1538,VALID,164,VALID,0,
2009-04-21, 02:47:00,VALID,916.129,VALID,0,VALID,100,VALID,-0.0509425,VALID,20.1868,VALID,164,VALID,0,
2009-04-21, 02:48:00,VALID,916.108,VALID,0,VALID,100,VALID,-0.0339617,VALID,20.1995,VALID,164,VALID,0,
2009-04-21, 02:49:00,VALID,916.1,VALID,0,VALID,100,VALID,-0.0339617,VALID,20.2125,VALID,164,VALID,0,
2009-04-21, 02:50:00,VALID,916.082,VALID,0,VALID,100,VALID,-0.0169808,VALID,20.2412,VALID,164,VALID,0,
2009-04-21, 02:51:00,VALID,916.059,VALID,0,VALID,100,VALID,0,VALID,20.2839,VALID,163,VALID,0,
2009-04-21, 02:52:00,VALID,916.076,VALID,0,VALID,100,VALID,-0.0169808,VALID,20.2831,VALID,162,VALID,0,
2009-04-21, 02:53:00,VALID,916.054,VALID,0,VALID,100,VALID,-0.0679233,VALID,20.2901,VALID,162,VALID,0,
2009-04-21, 02:54:00,VALID,916.051,VALID,0.2,VALID,100,VALID,-0.0339617,VALID,20.2801,VALID,162,VALID,0,
2009-04-21, 02:55:00,VALID,916.049,VALID,0,VALID,100,VALID,-0.0339617,VALID,20.2774,VALID,162,VALID,0,
2009-04-21, 02:56:00,VALID,916.047,VALID,0,VALID,100,VALID,-0.0509425,VALID,20.2677,VALID,86,VALID,0,
2009-04-21, 02:57:00,VALID,916.044,VALID,0,VALID,100,VALID,-0.0339617,VALID,20.2477,VALID,84,VALID,0,
2009-04-21, 02:58:00,VALID,916.026,VALID,0,VALID,100,VALID,-0.0339617,VALID,20.2644,VALID,84,VALID,0,
2009-04-21, 02:59:00,VALID,916.006,VALID,0,VALID,100,VALID,-0.0169808,VALID,20.2739,VALID,84,VALID,0,
2009-04-21, 03:00:00,VALID,915.977,VALID,0,VALID,100,VALID,-0.0169808,VALID,20.2704,VALID,84,VALID,0,
2009-04-21, 03:01:00,VALID,915.974,VALID,0,VALID,100,VALID,-0.0339617,VALID,20.2774,VALID,84,VALID,0,
2009-04-21, 03:02:00,VALID,915.962,VALID,0,VALID,100,VALID,-0.0509425,VALID,20.2999,VALID,84,VALID,0,
2009-04-21, 03:03:00,VALID,915.942,VALID,0,VALID,100,VALID,-0.0339617,VALID,20.2966,VALID,84,VALID,0,
2009-04-21, 03:04:00,VALID,915.936,VALID,0,VALID,100,VALID,-0.0679233,VALID,20.2679,VALID,84,VALID,0,
2009-04-21, 03:05:00,VALID,915.941,VALID,0,VALID,100,VALID,-0.0339617,VALID,20.2187,VALID,84,VALID,0,
2009-04-21, 03:06:00,VALID,915.97,VALID,0,VALID,100,VALID,-0.0339617,VALID,20.1798,VALID,84,VALID,0,
2009-04-21, 03:07:00,VALID,915.998,VALID,0,VALID,100,VALID,-0.0849042,VALID,20.1506,VALID,84,VALID,0,
2009-04-21, 03:08:00,VALID,916.029,VALID,0,VALID,100,VALID,-0.0679233,VALID,20.1449,VALID,84,VALID,0,
2009-04-21, 03:09:00,VALID,916.06,VALID,0,VALID,100,VALID,-0.0849042,VALID,20.1706,VALID,84,VALID,0,
2009-04-21, 03:10:00,VALID,916.075,VALID,0,VALID,100,VALID,-0.0849042,VALID,20.1798,VALID,84,VALID,0,
2009-04-21, 03:11:00,VALID,916.071,VALID,0,VALID,100,VALID,-0.0849042,VALID,20.183,VALID,84,VALID,0,
2009-04-21, 03:12:00,VALID,916.064,VALID,0,VALID,100,VALID,-0.0679233,VALID,20.1965,VALID,84,VALID,0,
2009-04-21, 03:13:00,VALID,916.055,VALID,0,VALID,100,VALID,-0.0849042,VALID,20.2322,VALID,84,VALID,0,
2009-04-21, 03:14:00,VALID,916.05,VALID,0,VALID,100,VALID,-0.0679233,VALID,20.2684,VALID,84,VALID,0,
2009-04-21, 03:15:00,VALID,916.028,VALID,0,VALID,100,VALID,-0.0679233,VALID,20.3034,VALID,84,VALID,0,
2009-04-21, 03:16:00,VALID,916.014,VALID,0,VALID,100,VALID,-0.0679233,VALID,20.3561,VALID,84,VALID,0,
2009-04-21, 03:17:00,VALID,916.02,VALID,0,VALID,100,VALID,-0.0849042,VALID,20.3853,VALID,84,VALID,0,
2009-04-21, 03:18:00,VALID,916.024,VALID,0,VALID,100,VALID,-0.118866,VALID,20.3753,VALID,84,VALID,0,
2009-04-21, 03:19:00,VALID,916.025,VALID,0,VALID,100,VALID,-0.0679233,VALID,20.3553,VALID,84,VALID,0,
2009-04-21, 03:20:00,VALID,916.039,VALID,0,VALID,100,VALID,-0.101885,VALID,20.3204,VALID,84,VALID,0,
2009-04-21, 03:21:00,VALID,916.038,VALID,0,VALID,100,VALID,-0.0679233,VALID,20.3104,VALID,84,VALID,0,
2009-04-21, 03:22:00,VALID,916.031,VALID,0,VALID,100,VALID,-0.0509425,VALID,20.3226,VALID,83,VALID,0,
2009-04-21, 03:23:00,VALID,916.031,VALID,0,VALID,100,VALID,-0.101885,VALID,20.2971,VALID,78,VALID,0.0406977,
2009-04-21, 03:24:00,VALID,916.034,VALID,0,VALID,100,VALID,-0.0679233,VALID,20.2804,VALID,71,VALID,0,
2009-04-21, 03:25:00,VALID,916.05,VALID,0,VALID,100,VALID,-0.0679233,VALID,20.2744,VALID,69,VALID,0,
2009-04-21, 03:26:00,VALID,916.072,VALID,0,VALID,100,VALID,-0.0679233,VALID,20.242,VALID,69,VALID,0,
2009-04-21, 03:27:00,VALID,916.075,VALID,0,VALID,100,VALID,-0.0679233,VALID,20.236,VALID,69,VALID,0,
2009-04-21, 03:28:00,VALID,916.083,VALID,0,VALID,100,VALID,-0.0849042,VALID,20.223,VALID,69,VALID,0,
2009-04-21, 03:29:00,VALID,916.07,VALID,0,VALID,100,VALID,-0.0339617,VALID,20.2222,VALID,69,VALID,0,
2009-04-21, 03:30:00,VALID,916.059,VALID,0,VALID,100,VALID,-0.0679233,VALID,20.209,VALID,69,VALID,0,
2009-04-21, 03:31:00,VALID,916.055,VALID,0,VALID,100,VALID,-0.0509425,VALID,20.183,VALID,69,VALID,0,
2009-04-21, 03:32:00,VALID,916.064,VALID,0,VALID,100,VALID,-0.0849042,VALID,20.1898,VALID,69,VALID,0,
2009-04-21, 03:33:00,VALID,916.071,VALID,0,VALID,100,VALID,-0.0849042,VALID,20.2035,VALID,69,VALID,0,
2009-04-21, 03:34:00,VALID,916.062,VALID,0,VALID,100,VALID,-0.0849042,VALID,20.1933,VALID,69,VALID,0,
2009-04-21, 03:35:00,VALID,916.065,VALID,0,VALID,100,VALID,-0.0679233,VALID,20.213,VALID,69,VALID,0,
2009-04-21, 03:36:00,VALID,916.063,VALID,0,VALID,100,VALID,-0.0509425,VALID,20.2,VALID,69,VALID,0,
2009-04-21, 03:37:00,VALID,916.069,VALID,0,VALID,100,VALID,-0.0509425,VALID,20.199,VALID,69,VALID,0,
2009-04-21, 03:38:00,VALID,916.052,VALID,0,VALID,100,VALID,-0.0169808,VALID,20.2185,VALID,69,VALID,0,
2009-04-21, 03:39:00,VALID,916.057,VALID,0,VALID,100,VALID,-0.101885,VALID,20.2612,VALID,67,VALID,0,
2009-04-21, 03:40:00,VALID,916.043,VALID,0,VALID,100,VALID,-0.101885,VALID,20.2744,VALID,66,VALID,0,
2009-04-21, 03:41:00,VALID,916.034,VALID,0,VALID,100,VALID,-0.101885,VALID,20.3011,VALID,66,VALID,0,
2009-04-21, 03:42:00,VALID,916.015,VALID,0,VALID,100,VALID,-0.0849042,VALID,20.3006,VALID,66,VALID,0,
2009-04-21, 03:43:00,VALID,916.006,VALID,0,VALID,100,VALID,-0.0339617,VALID,20.2771,VALID,66,VALID,0,
2009-04-21, 03:44:00,VALID,916.003,VALID,0,VALID,100,VALID,-0.0679233,VALID,20.2479,VALID,66,VALID,0,
2009-04-21, 03:45:00,VALID,916.005,VALID,0,VALID,100,VALID,-0.0339617,VALID,20.2612,VALID,66,VALID,0,
2009-04-21, 03:46:00,VALID,915.999,VALID,0,VALID,100,VALID,-0.0509425,VALID,20.2609,VALID,66,VALID,0,